Date,TemperatureHighF,TemperatureAvgF,TemperatureLowF,DewpointHighF,DewpointAvgF,DewpointLowF,HumidityHigh,HumidityAvg,HumidityLow,PressureMaxIn,PressureMinIn,WindSpeedMaxMPH,WindSpeedAvgMPH,GustSpeedMaxMPH,PrecipitationSumIn
2013-1-1,33,23,8,26,12,0,80,64,50,29.92,29.64,15,6,22,0.00
2013-1-2,21,10,-1,11,0,-9,86,67,47,30.14,29.88,15,4,27,0.00
2013-1-3,17,6,-4,0,-5,-9,83,64,37,30.15,29.99,9,2,18,0.00
2013-1-4,34,18,-4,25,11,-100,87,75,60,29.98,29.77,14,-8,20,0.00
2013-1-5,33,27,12,27,18,9,90,69,52,30.25,29.78,19,5,29,0.00
2013-1-6,34,23,12,26,19,10,94,85,72,30.21,29.91,2,0,3,0.00
2013-1-7,32,22,4,28,15,1,95,76,50,30.38,29.94,13,3,18,0.00
2013-1-8,39,16,0,24,11,-3,92,80,52,30.38,30.23,3,0,7,0.01
2013-1-9,42,23,9,30,19,6,93,85,58,30.42,29.96,10,1,23,0.01
2013-1-10,42,37,26,33,26,22,83,64,56,30.52,29.97,18,7,27,0.01
2013-1-11,36,28,17,31,24,15,96,83,60,30.51,30.23,2,0,8,0.16
2013-1-12,38,34,32,37,33,31,98,97,95,30.22,30.11,0,0,3,0.08
2013-1-13,39,35,33,38,35,32,99,98,97,30.14,29.95,2,0,4,0.00
2013-1-14,55,39,34,50,33,26,100,82,55,30.25,29.85,11,2,20,0.02
2013-1-15,36,31,25,27,24,22,94,76,57,30.31,30.21,6,1,11,0.00
2013-1-16,30,28,27,29,26,24,96,92,85,30.24,29.78,3,0,3,0.01
2013-1-17,36,24,16,31,17,1,96,75,49,30.12,29.79,12,2,19,0.12
2013-1-18,19,10,2,1,-5,-13,85,53,34,30.41,30.08,12,3,20,0.00
2013-1-19,31,19,6,22,13,2,86,79,64,30.35,29.85,3,0,5,0.00
2013-1-20,42,28,15,34,17,0,93,68,40,29.90,29.50,18,5,34,0.05
2013-1-21,25,18,4,17,6,-1,91,61,41,30.05,29.81,12,2,17,0.00
2013-1-22,20,14,3,16,6,-8,91,71,43,30.05,29.77,21,4,22,0.00
2013-1-23,5,-1,-6,-3,-13,-17,84,57,38,30.16,30.04,12,3,19,0.00
2013-1-24,11,2,-6,-8,-14,-18,59,48,36,30.25,30.07,18,7,29,0.00
2013-1-25,17,9,0,-2,-6,-9,66,51,37,30.31,30.07,14,4,22,0.00
2013-1-26,17,11,1,4,-2,-7,85,59,37,30.23,30.02,14,4,24,0.00
2013-1-27,21,14,6,2,-1,-6,68,53,36,30.47,30.22,14,4,23,0.00
2013-1-28,21,13,2,17,6,-3,91,74,41,30.46,30.07,5,0,6,0.00
2013-1-29,34,24,8,30,20,6,95,87,69,30.20,30.07,2,0,5,0.20
2013-1-30,35,33,31,34,32,30,98,97,95,30.14,29.40,3,0,4,0.35
2013-1-31,56,39,24,56,31,12,100,74,47,29.50,28.85,25,7,31,0.84
2013-2-1,26,22,15,19,9,3,80,58,48,30.06,29.50,15,6,27,0.00
2013-2-2,23,17,9,15,8,2,85,66,48,30.19,30.04,7,2,11,0.00
2013-2-3,27,21,13,16,14,10,90,75,56,30.04,29.71,3,0,9,0.00
2013-2-4,26,21,15,16,6,-2,86,55,31,29.88,29.69,19,7,27,0.00
2013-2-5,26,16,2,11,3,-2,85,61,36,30.02,29.88,8,1,12,0.00
2013-2-6,34,23,16,21,12,-7,91,66,33,30.30,29.93,15,4,24,0.00
2013-2-7,22,15,9,5,-4,-7,58,44,30,30.55,30.30,10,3,14,0.00
2013-2-8,18,16,12,14,10,-1,89,79,47,30.51,29.87,10,2,22,0.00
2013-2-9,19,16,11,17,10,2,92,77,59,30.21,29.78,17,4,22,0.00
2013-2-10,33,14,-8,8,0,-12,87,58,24,30.41,30.22,11,2,18,0.19
2013-2-11,27,18,3,26,15,0,96,90,77,30.37,29.63,2,0,4,0.00
2013-2-12,40,35,26,30,28,25,96,76,61,29.82,29.60,17,4,24,0.39
2013-2-13,37,30,21,26,22,18,92,73,53,29.84,29.73,9,1,12,0.00
2013-2-14,39,26,17,24,16,-100,94,75,50,29.98,29.71,7,-30,12,0.00
2013-2-15,49,31,16,28,22,14,93,74,40,29.97,29.86,9,1,15,0.00
2013-2-16,35,31,24,27,20,6,89,65,44,29.95,29.77,13,3,16,0.00
2013-2-17,24,17,12,12,2,-100,78,56,44,29.76,29.42,20,-13,30,0.00
2013-2-18,26,18,9,3,-2,-7,64,45,27,30.10,29.67,22,9,37,0.00
2013-2-19,38,27,12,31,11,-6,95,56,30,30.16,29.57,10,1,12,0.01
2013-2-20,34,29,23,32,21,13,96,75,60,29.71,29.50,11,4,20,0.03
2013-2-21,24,20,15,15,12,6,86,70,61,30.24,29.71,16,5,23,0.00
2013-2-22,38,26,10,24,18,7,92,73,47,30.42,30.25,6,0,10,0.01
2013-2-23,33,30,26,31,28,23,96,89,77,30.32,29.97,3,0,7,0.04
2013-2-24,35,32,30,32,30,28,96,94,88,29.96,29.76,2,0,4,0.15
2013-2-25,38,33,27,33,30,26,97,90,77,30.22,29.89,6,0,8,0.52
2013-2-26,38,34,30,33,31,28,97,89,77,30.33,30.19,5,0,10,0.04
2013-2-27,34,32,29,33,30,28,96,94,84,30.19,29.66,14,3,26,0.27
2013-2-28,45,35,31,38,33,29,97,91,72,29.65,29.52,2,0,7,0.27
2013-3-1,37,33,25,32,28,24,98,84,71,29.68,29.53,8,2,14,0.01
2013-3-2,39,33,28,28,26,24,91,77,64,29.68,29.61,11,3,15,0.00
2013-3-3,38,31,27,29,26,23,92,81,69,29.65,29.55,10,3,15,0.06
2013-3-4,33,28,26,24,22,20,80,76,69,29.79,29.59,13,6,21,0.00
2013-3-5,43,32,26,33,26,20,96,78,57,30.10,29.80,6,2,12,0.01
2013-3-6,36,34,31,32,29,25,96,83,71,30.21,30.09,16,4,21,0.03
2013-3-7,34,31,30,30,26,24,95,82,69,30.19,30.08,16,2,21,0.02
2013-3-8,43,33,22,32,27,20,95,81,46,30.23,30.03,8,1,12,0.18
2013-3-9,57,34,16,28,21,14,95,68,19,30.36,30.19,5,0,7,0.00
2013-3-10,50,34,18,30,25,16,94,72,41,30.41,30.25,7,1,11,0.01
2013-3-11,51,38,30,34,30,28,94,76,43,30.29,30.10,5,0,11,0.00
2013-3-12,46,39,34,45,38,31,99,95,87,30.11,29.69,3,0,11,0.89
2013-3-13,44,38,26,41,31,25,99,77,51,29.76,29.68,13,3,19,0.00
2013-3-14,33,27,18,26,18,6,94,70,52,29.84,29.66,10,4,21,0.00
2013-3-15,35,24,15,28,13,5,94,65,36,29.85,29.60,10,4,19,0.00
2013-3-16,32,27,21,22,14,10,82,60,42,29.89,29.68,11,3,15,0.02
2013-3-17,28,22,13,14,8,0,90,58,37,30.32,29.89,17,4,25,0.01
2013-3-18,36,23,6,16,4,-2,85,49,22,30.45,30.24,5,0,9,0.00
2013-3-19,30,27,24,29,25,21,94,92,71,30.24,29.73,10,2,21,0.01
2013-3-20,34,28,22,24,21,18,95,77,57,29.74,29.64,13,4,20,0.03
2013-3-21,40,28,12,18,15,9,90,61,31,29.76,29.57,8,1,12,0.12
2013-3-22,37,29,16,26,18,13,90,66,44,29.70,29.60,11,3,17,0.00
2013-3-23,38,32,24,24,21,17,79,66,48,29.75,29.60,21,7,33,0.00
2013-3-24,42,34,24,25,24,22,90,66,49,29.83,29.72,13,5,22,0.00
2013-3-25,42,32,19,29,24,18,94,76,51,29.79,29.56,12,1,16,0.00
2013-3-26,46,37,28,29,25,20,93,65,36,29.77,29.59,10,2,17,0.00
2013-3-27,46,36,22,33,27,20,94,72,48,29.89,29.76,14,3,21,0.00
2013-3-28,47,39,32,35,32,30,96,80,55,30.02,29.89,7,1,11,0.00
2013-3-29,49,41,31,39,34,29,91,74,56,30.04,29.97,8,2,18,0.02
2013-3-30,51,39,26,32,24,17,96,63,27,30.10,29.98,13,2,19,0.01
2013-3-31,56,41,23,38,24,18,94,60,25,30.12,29.80,10,1,21,0.06
2013-4-1,54,40,31,43,32,13,97,79,41,29.78,29.46,19,4,29,0.62
2013-4-2,35,30,26,15,11,8,51,46,39,29.86,29.74,20,8,27,0.00
2013-4-3,41,33,26,19,12,9,58,43,27,30.12,29.85,21,7,25,0.00
2013-4-4,53,38,28,25,15,10,78,42,20,30.25,29.96,14,4,17,0.00
2013-4-5,53,40,28,28,25,20,85,57,29,29.95,29.66,11,4,20,0.00
2013-4-6,40,31,24,19,10,4,70,43,24,30.33,29.88,16,7,27,0.00
2013-4-7,58,41,24,34,23,15,81,52,27,30.32,29.91,8,1,25,0.00
2013-4-8,59,44,31,36,32,28,95,67,30,30.09,29.91,16,2,22,0.00
2013-4-9,55,44,36,47,40,32,97,86,60,30.07,29.89,10,1,17,0.27
2013-4-10,54,47,40,48,43,39,98,87,68,29.98,29.87,7,1,11,0.76
2013-4-11,45,42,38,42,30,18,97,67,36,30.16,29.86,10,2,14,0.04
2013-4-12,39,33,30,31,27,18,95,80,46,30.20,29.87,9,1,17,0.04
2013-4-13,52,41,31,38,35,30,97,81,53,29.91,29.76,8,0,10,0.51
2013-4-14,48,40,31,37,34,29,97,82,59,30.21,29.89,14,2,19,0.02
2013-4-15,58,42,25,35,30,24,96,68,37,30.37,30.21,9,1,13,0.00
2013-4-16,64,48,30,52,40,28,95,79,47,30.38,29.98,11,2,15,0.06
2013-4-17,58,50,34,52,34,29,95,58,35,30.33,30.00,13,4,25,0.00
2013-4-18,59,45,27,37,30,24,94,61,35,30.45,30.11,10,2,15,0.00
2013-4-19,73,61,50,61,52,31,90,72,45,30.11,29.54,17,2,21,0.17
2013-4-20,61,47,38,59,34,20,93,62,39,30.20,29.57,14,6,25,0.20
2013-4-21,50,39,28,25,20,18,85,49,30,30.69,30.20,13,4,21,0.00
2013-4-22,52,38,23,28,22,15,92,60,24,30.77,30.61,20,2,20,0.00
2013-4-23,41,35,26,38,32,24,94,86,76,30.62,30.19,9,1,15,0.00
2013-4-24,77,57,39,49,41,29,95,62,18,30.18,29.70,5,1,10,0.00
2013-4-25,62,52,34,50,34,25,85,53,30,30.28,29.70,15,4,24,0.00
2013-4-26,57,44,26,40,31,25,94,64,34,30.42,30.29,7,1,16,0.00
2013-4-27,66,49,30,40,32,23,96,60,20,30.43,30.23,10,1,12,0.01
2013-4-28,70,52,30,39,34,29,95,58,25,30.32,30.15,8,1,14,0.00
2013-4-29,70,54,36,43,38,34,94,60,31,30.25,30.11,8,1,23,0.00
2013-4-30,74,60,44,45,38,32,84,49,24,30.34,30.20,8,1,13,0.00
2013-5-1,76,57,33,40,34,24,96,51,15,30.44,30.34,13,2,15,0.00
2013-5-2,79,55,38,44,37,29,95,58,21,30.50,30.31,19,2,25,0.00
2013-5-3,67,51,31,46,38,30,94,66,40,30.53,30.34,9,1,15,0.00
2013-5-4,71,54,37,46,38,26,96,62,19,30.37,30.20,7,1,15,0.00
2013-5-5,73,52,30,40,34,29,96,58,23,30.32,30.15,8,1,15,0.00
2013-5-6,77,56,33,46,34,17,95,55,11,30.25,30.06,7,1,11,0.00
2013-5-7,82,62,38,51,42,32,97,58,18,30.15,30.00,11,1,14,0.00
2013-5-8,74,61,45,65,54,44,96,80,50,30.18,30.05,10,1,16,0.19
2013-5-9,69,61,56,60,57,55,97,88,65,30.04,29.86,8,1,11,0.31
2013-5-10,77,64,55,62,57,54,98,79,48,29.93,29.85,6,0,9,0.01
2013-5-11,68,61,56,62,59,55,97,91,78,29.86,29.63,5,1,11,0.13
2013-5-12,65,57,47,59,46,28,98,70,39,29.75,29.54,14,3,17,0.00
2013-5-13,52,45,40,36,30,27,83,57,41,30.04,29.75,11,4,20,0.00
2013-5-14,57,45,31,36,30,24,96,62,29,30.05,29.90,14,3,20,0.00
2013-5-15,66,46,30,49,36,28,95,74,28,30.05,29.66,10,1,19,0.20
2013-5-16,76,61,46,53,43,34,98,60,23,29.81,29.56,17,4,25,0.01
2013-5-17,66,55,46,44,40,35,88,59,32,30.21,29.82,12,3,19,0.00
2013-5-18,73,57,38,46,40,31,97,62,23,30.30,30.15,7,1,12,0.00
2013-5-19,65,54,43,55,49,42,96,83,61,30.33,30.18,5,1,11,0.33
2013-5-20,71,61,53,63,58,52,98,88,72,30.18,29.91,12,1,17,0.15
2013-5-21,64,56,50,60,54,49,97,93,84,30.12,29.90,6,1,17,0.45
2013-5-22,61,54,50,56,52,49,97,94,83,30.00,29.89,3,0,9,0.51
2013-5-23,69,60,52,66,58,51,98,94,87,29.91,29.74,3,0,11,0.09
2013-5-24,68,59,46,65,56,45,98,89,73,29.85,29.61,11,2,16,0.67
2013-5-25,47,44,33,46,42,32,96,91,78,29.85,29.74,7,2,13,1.26
2013-5-26,53,44,35,42,38,34,96,80,63,30.05,29.71,19,5,25,0.18
2013-5-27,67,51,34,43,37,33,97,65,29,30.18,29.99,15,3,21,0.00
2013-5-28,74,56,37,46,40,34,97,63,29,30.25,30.08,6,1,15,0.00
2013-5-29,56,53,49,55,51,45,98,93,86,30.16,29.99,3,0,8,0.40
2013-5-30,85,69,54,68,61,54,100,78,46,30.04,29.92,11,2,18,0.01
2013-5-31,92,74,57,68,62,57,99,71,35,30.06,29.82,7,1,14,0.01
2013-6-1,93,76,59,71,64,58,97,70,34,29.92,29.76,8,1,14,0.00
2013-6-2,91,73,64,71,66,61,97,82,45,29.80,29.59,16,1,23,0.46
2013-6-3,78,68,54,65,59,50,98,76,41,29.79,29.63,11,1,15,0.01
2013-6-4,65,56,46,50,44,41,92,65,44,30.07,29.79,23,4,23,0.00
2013-6-5,73,59,44,48,42,35,95,61,26,30.16,30.01,11,1,13,0.00
2013-6-6,73,62,50,54,48,40,90,64,38,30.18,30.07,9,1,14,0.00
2013-6-7,57,53,51,53,51,48,97,93,82,30.09,29.90,6,0,9,0.60
2013-6-8,69,60,52,60,56,50,96,85,73,29.99,29.69,10,2,20,0.53
2013-6-9,76,64,54,59,55,52,96,75,48,30.16,29.98,10,1,16,0.00
2013-6-10,71,60,48,59,55,47,97,83,62,30.20,30.01,4,0,10,0.18
2013-6-11,59,56,54,57,55,52,97,94,87,30.02,29.58,5,1,13,0.82
2013-6-12,66,60,54,56,54,53,98,81,64,29.80,29.55,13,2,21,0.01
2013-6-13,68,58,49,58,53,48,97,84,57,29.80,29.69,4,0,7,0.14
2013-6-14,77,63,53,58,53,47,98,73,37,29.76,29.62,7,0,10,0.00
2013-6-15,75,62,46,54,47,41,96,63,31,29.91,29.76,9,2,17,0.00
2013-6-16,75,60,46,61,54,45,96,81,48,29.91,29.69,4,0,10,0.03
2013-6-17,80,65,51,62,57,51,98,78,46,29.87,29.75,7,1,15,0.02
2013-6-18,63,59,53,58,55,52,97,85,72,29.97,29.86,1,0,7,0.02
2013-6-19,73,60,47,53,47,42,97,67,34,30.14,29.93,7,1,12,0.00
2013-6-20,79,61,44,56,47,43,96,66,29,30.25,30.15,7,0,11,0.00
2013-6-21,83,65,49,60,53,47,95,69,34,30.23,30.16,5,0,10,0.00
2013-6-22,82,68,56,70,62,54,96,80,56,30.21,30.06,6,0,8,0.01
2013-6-23,88,71,64,77,68,63,98,90,65,30.12,29.91,4,0,15,0.82
2013-6-24,90,74,64,72,68,64,99,84,48,29.97,29.82,8,1,15,0.40
2013-6-25,88,74,64,72,68,63,98,83,50,29.90,29.69,9,1,16,0.15
2013-6-26,78,70,65,72,68,64,99,94,76,29.83,29.70,5,0,7,0.36
2013-6-27,72,66,61,67,64,60,98,94,85,29.83,29.75,3,0,10,0.01
2013-6-28,65,61,58,64,60,56,98,96,91,29.76,29.49,11,1,19,0.82
2013-6-29,84,71,63,71,66,63,99,87,57,29.66,29.47,5,0,13,0.67
2013-6-30,85,72,63,73,67,63,99,85,55,29.90,29.66,7,0,11,0.20
2013-7-1,78,71,66,71,68,65,98,92,73,30.04,29.90,3,0,9,0.17
2013-7-2,74,66,61,72,65,61,98,96,90,30.19,30.02,5,0,9,0.59
2013-7-3,88,73,61,75,68,61,98,86,57,30.18,30.00,7,0,9,0.01
2013-7-4,92,79,66,76,71,66,99,79,50,30.16,29.95,5,0,8,0.00
2013-7-5,92,80,68,74,72,67,97,77,51,30.11,29.91,6,1,12,0.00
2013-7-6,87,77,67,72,70,65,96,79,55,30.02,29.89,7,1,13,0.01
2013-7-7,87,74,64,74,68,63,97,81,51,29.99,29.85,5,0,7,0.09
2013-7-8,80,72,66,73,70,66,98,93,73,30.05,29.89,5,0,12,0.70
2013-7-9,75,69,66,69,67,65,98,91,78,30.09,30.03,0,0,7,0.00
2013-7-10,72,68,66,69,67,64,98,95,90,30.04,29.76,2,0,8,0.70
2013-7-11,81,72,64,72,68,62,99,87,59,29.95,29.73,8,0,10,0.00
2013-7-12,81,69,58,66,60,56,97,78,48,30.19,29.95,5,0,10,0.00
2013-7-13,80,70,59,69,63,58,98,81,56,30.29,30.20,4,0,8,0.00
2013-7-14,87,76,65,73,69,64,98,82,57,30.27,30.12,5,0,10,0.00
2013-7-15,92,77,66,72,68,65,98,77,44,30.19,30.02,7,1,12,0.00
2013-7-16,90,78,65,71,68,64,96,73,49,30.14,30.05,6,1,13,0.00
2013-7-17,94,79,65,75,69,64,97,74,44,30.16,29.89,7,1,25,0.08
2013-7-18,92,78,69,75,71,67,98,83,49,29.99,29.89,6,0,8,0.35
2013-7-19,93,80,70,78,72,67,99,78,47,29.91,29.59,14,1,20,0.01
2013-7-20,86,76,66,71,68,64,96,79,57,29.77,29.59,10,1,16,0.04
2013-7-21,81,71,60,67,62,58,97,77,45,29.98,29.78,5,0,8,0.00
2013-7-22,74,67,61,69,63,58,95,88,82,30.02,29.89,5,0,8,0.04
2013-7-23,75,66,62,70,64,62,98,94,81,29.88,29.48,3,0,7,1.82
2013-7-24,76,67,54,70,61,48,100,82,61,29.98,29.56,10,2,17,0.01
2013-7-25,72,60,47,62,53,46,97,78,54,30.10,29.98,3,0,11,0.00
2013-7-26,77,66,60,66,62,59,97,87,67,30.08,29.92,4,0,9,0.12
2013-7-27,84,69,56,67,60,55,97,75,40,30.01,29.93,5,0,8,0.01
2013-7-28,80,68,57,69,64,56,98,88,66,30.00,29.94,9,1,17,0.01
2013-7-29,82,67,64,68,61,-100,97,87,60,30.03,29.92,8,-26,15,0.03
2013-7-30,77,68,58,63,58,54,98,75,46,30.08,29.99,7,1,14,0.00
2013-7-31,81,67,53,64,57,52,98,75,39,30.12,30.00,2,0,7,0.01
2013-8-1,81,67,55,66,60,54,98,83,48,30.03,29.84,8,1,13,0.00
2013-8-2,80,70,60,66,62,55,97,79,44,29.84,29.72,10,1,15,0.01
2013-8-3,78,65,54,62,57,53,98,78,46,29.82,29.71,8,1,16,0.00
2013-8-4,72,63,51,59,54,50,96,76,53,29.87,29.76,9,1,15,0.00
2013-8-5,72,62,49,53,46,35,91,62,27,30.04,29.86,14,3,19,0.00
2013-8-6,77,61,46,59,51,45,97,73,41,30.14,30.04,5,0,12,0.00
2013-8-7,78,64,48,61,55,47,98,74,45,30.17,30.05,6,0,16,0.00
2013-8-8,84,70,62,71,65,58,95,84,61,30.08,29.93,8,0,11,0.00
2013-8-9,75,71,66,73,70,66,98,94,88,29.97,29.70,6,0,15,0.00
2013-8-10,77,69,53,66,58,46,99,72,35,30.00,29.75,9,2,18,0.00
2013-8-11,77,62,48,60,52,47,97,73,42,30.06,29.95,7,1,12,0.00
2013-8-12,79,65,52,62,56,51,97,76,44,30.01,29.87,4,0,10,0.00
2013-8-13,68,62,55,67,61,54,98,96,91,29.90,29.67,1,0,3,0.00
2013-8-14,71,63,54,64,56,51,99,79,56,29.93,29.64,12,2,20,0.00
2013-8-15,74,59,47,58,51,46,97,77,45,30.09,29.93,7,1,13,0.00
2013-8-16,78,62,47,62,53,46,98,76,42,30.18,30.08,6,0,9,0.00
2013-8-17,80,65,51,61,55,50,98,76,41,30.27,30.18,6,0,10,0.00
2013-8-18,78,65,53,64,58,52,96,80,52,30.27,30.05,3,0,6,0.00
2013-8-19,83,67,53,64,59,52,98,77,45,30.05,29.89,8,1,13,0.00
2013-8-20,84,69,54,66,60,53,98,76,43,30.07,29.96,7,1,10,0.00
2013-8-21,87,71,59,69,62,58,98,77,40,30.13,29.98,5,1,10,0.00
2013-8-22,88,73,58,69,63,57,98,76,40,30.00,29.76,5,0,12,0.00
2013-8-23,78,68,54,66,55,46,96,66,35,30.14,29.79,8,1,14,0.00
2013-8-24,79,61,47,55,48,45,96,69,30,30.32,30.15,4,0,8,0.01
2013-8-25,81,64,48,62,54,47,97,74,37,30.36,30.14,5,0,8,0.01
2013-8-26,76,68,60,70,64,58,97,89,72,30.15,29.85,2,0,7,0.00
2013-8-27,85,73,64,70,66,63,98,82,53,29.88,29.79,3,0,7,0.00
2013-8-28,86,71,62,72,66,61,98,87,56,30.00,29.81,8,0,13,0.00
2013-8-29,68,65,62,65,63,61,98,93,84,30.06,29.94,5,0,10,0.01
2013-8-30,85,71,62,71,65,61,96,83,55,30.01,29.75,6,1,10,0.00
2013-8-31,79,71,66,73,68,65,98,92,75,29.80,29.72,6,0,8,0.00
2013-9-1,83,74,67,72,69,67,99,85,61,29.85,29.75,5,0,6,0.00
2013-9-2,74,70,67,71,69,66,98,95,85,29.84,29.70,6,0,10,0.00
2013-9-3,74,68,61,67,65,59,98,88,74,29.77,29.68,5,0,7,0.00
2013-9-4,77,67,58,63,58,55,95,76,47,29.88,29.76,11,1,15,0.00
2013-9-5,66,59,43,60,50,40,96,76,39,30.15,29.84,15,1,15,0.00
2013-9-6,68,52,38,52,43,37,97,75,41,30.25,30.07,6,1,10,0.00
2013-9-7,74,58,45,58,51,44,97,80,48,30.07,29.82,7,0,7,0.00
2013-9-8,62,57,44,57,48,40,95,75,48,30.07,29.74,17,2,21,0.00
2013-9-9,71,53,38,53,44,37,97,74,36,30.21,30.08,4,0,10,0.00
2013-9-10,67,56,47,64,55,46,97,94,87,30.12,30.00,2,0,4,0.00
2013-9-11,92,74,63,77,68,62,99,84,53,30.05,29.86,7,0,21,0.00
2013-9-12,79,69,65,74,68,65,98,94,82,29.93,29.64,3,0,10,0.00
2013-9-13,72,64,56,65,61,52,99,89,76,29.76,29.58,7,1,14,0.00
2013-9-14,62,56,46,53,51,44,95,83,69,30.04,29.75,9,1,14,0.00
2013-9-15,70,55,40,55,48,39,98,80,48,30.14,30.01,4,0,9,0.00
2013-9-16,62,54,40,55,47,34,97,80,58,30.27,29.98,8,2,19,0.00
2013-9-17,65,48,32,47,39,31,97,76,45,30.43,30.27,7,0,8,0.00
2013-9-18,73,54,39,53,44,38,98,76,33,30.32,30.09,4,0,9,0.00
2013-9-19,79,58,42,58,49,41,98,77,33,30.13,29.99,6,0,8,0.00
2013-9-20,78,60,46,60,53,45,98,80,45,30.09,29.95,4,0,8,0.00
2013-9-21,74,61,48,63,56,47,98,85,56,30.00,29.67,7,1,15,0.00
2013-9-22,68,61,49,65,54,43,96,79,58,29.82,29.55,10,2,17,0.00
2013-9-23,55,49,46,43,40,37,80,71,61,29.98,29.82,14,6,24,0.00
2013-9-24,61,52,46,47,42,38,89,70,55,29.97,29.83,16,4,22,0.00
2013-9-25,64,53,41,50,46,40,96,78,59,30.00,29.87,6,0,13,0.00
2013-9-26,69,53,39,52,46,38,96,79,49,30.14,29.99,5,0,7,0.00
2013-9-27,70,56,49,56,50,48,96,83,53,30.27,30.15,4,0,7,0.00
2013-9-28,73,56,45,56,50,44,98,82,47,30.34,30.23,4,0,9,0.00
2013-9-29,71,55,44,56,49,43,99,84,44,30.27,30.07,3,0,7,0.00
2013-9-30,71,54,43,57,48,42,99,84,49,30.12,29.94,5,0,11,0.00
2013-10-1,76,58,45,58,50,44,99,81,42,29.98,29.82,7,1,13,0.00
2013-10-2,78,61,48,60,55,47,99,82,49,29.93,29.77,10,1,16,0.00
2013-10-3,75,59,45,55,50,44,98,77,38,30.07,29.93,5,0,11,0.00
2013-10-4,69,56,44,57,51,44,97,84,54,30.09,30.01,1,0,7,0.00
2013-10-5,63,59,55,55,51,43,94,79,52,30.12,30.05,5,0,6,0.00
2013-10-6,56,51,48,54,46,38,97,83,59,30.25,30.12,5,0,13,0.00
2013-10-7,70,56,49,67,55,48,99,96,82,30.16,29.69,10,0,17,0.00
2013-10-8,61,50,36,50,42,35,98,75,42,30.39,29.88,11,1,17,0.00
2013-10-9,63,45,33,47,38,32,97,81,43,30.50,30.37,3,0,8,0.00
2013-10-10,65,48,37,50,43,36,98,84,46,30.38,30.19,1,0,5,0.00
2013-10-11,69,52,44,56,47,43,97,84,47,30.19,30.11,2,0,5,0.00
2013-10-12,56,48,38,53,47,37,99,93,86,30.41,30.19,8,0,10,0.00
2013-10-13,55,49,42,50,46,41,99,90,78,30.46,30.38,2,0,4,0.00
2013-10-14,66,54,41,56,49,40,98,85,61,30.38,30.21,2,0,7,0.00
2013-10-15,63,57,51,56,53,50,97,86,69,30.26,30.17,4,0,9,0.00
2013-10-16,61,55,48,52,50,47,96,85,66,30.16,29.89,5,0,8,0.00
2013-10-17,71,55,46,55,48,45,97,81,43,29.88,29.69,6,0,13,0.00
2013-10-18,62,55,47,54,48,36,97,79,51,29.86,29.59,13,2,20,0.00
2013-10-19,64,50,34,48,42,33,97,75,46,29.94,29.72,5,0,11,0.00
2013-10-20,58,50,41,47,39,33,96,67,39,29.98,29.65,13,3,24,0.00
2013-10-21,63,46,30,47,39,29,97,79,45,30.09,29.95,5,0,11,0.00
2013-10-22,52,44,36,51,42,34,98,93,85,29.94,29.70,4,0,11,0.00
2013-10-23,52,41,32,38,34,31,98,79,47,29.77,29.57,3,0,7,0.00
2013-10-24,47,41,31,36,32,29,92,71,53,29.86,29.63,11,2,22,0.00
2013-10-25,44,37,29,34,29,26,95,76,50,30.12,29.86,18,2,19,0.00
2013-10-26,47,38,26,35,30,25,94,76,49,30.13,29.84,5,0,12,0.01
2013-10-27,53,41,28,37,32,26,94,73,41,30.02,29.77,12,2,20,0.00
2013-10-28,51,37,26,37,28,22,94,73,46,30.36,30.03,13,2,23,0.00
2013-10-29,47,30,19,26,19,12,95,70,26,30.46,30.35,4,0,8,0.00
2013-10-30,47,34,23,34,27,21,95,79,57,30.37,30.18,9,0,13,0.01
2013-10-31,41,32,27,39,30,25,96,94,88,30.25,30.05,0,0,2,0.00
2013-12-11,29,25,19,19,15,11,85,66,52,30.14,30.06,10,2,19,0.00
2013-12-12,18,10,0,10,1,-3,89,71,44,30.29,30.02,9,1,16,0.00
2013-12-13,23,7,-4,14,0,-8,89,75,51,30.43,29.94,16,1,19,0.00
2013-12-14,13,7,-2,7,-3,-9,88,67,43,30.62,30.32,6,0,9,0.00
2013-12-15,27,19,10,24,15,7,91,86,69,30.29,29.47,9,1,16,0.00
2013-12-16,22,15,4,14,5,-6,94,67,43,30.24,29.68,20,3,24,0.00
2013-12-17,12,3,-13,9,-3,-17,88,78,55,30.31,30.05,3,0,8,0.00
2013-12-18,30,17,8,20,13,6,91,82,63,30.05,29.91,8,1,16,0.02
2013-12-19,36,25,13,27,21,11,93,85,59,30.08,29.93,5,0,7,0.05
2013-12-20,38,32,28,32,30,27,96,90,74,30.11,29.91,0,0,3,0.13
2013-12-21,40,35,33,37,34,32,97,96,89,29.93,29.85,1,0,2,0.26
2013-12-22,38,33,30,38,32,29,99,97,95,30.05,29.83,5,0,11,0.28
2013-12-23,34,32,30,33,31,29,98,97,85,30.12,29.98,7,0,11,0.30
2013-12-24,34,26,13,30,18,5,86,71,54,30.23,30.05,7,2,16,0.00
2013-12-25,20,11,5,7,2,-4,88,68,47,30.55,30.24,11,1,16,0.00
2013-12-26,22,15,8,20,12,6,92,89,86,30.50,30.11,0,0,2,0.00
2013-12-27,32,16,4,23,12,1,95,84,58,30.23,30.16,6,0,11,0.08
2013-12-28,37,23,7,32,20,4,94,88,78,30.18,29.96,2,0,4,0.04
2013-12-29,33,28,20,32,27,19,97,95,92,30.01,29.55,0,0,1,0.01
2013-12-30,36,24,0,33,19,-4,98,81,65,30.19,29.55,13,3,18,0.04
2013-12-31,17,3,-8,6,-3,-12,88,78,52,30.18,30.03,1,0,5,0.00
2014-1-1,20,5,-11,10,-2,-15,91,75,50,30.41,30.16,13,1,17,0.00
2014-1-2,9,4,-2,5,1,-5,87,84,75,30.41,29.97,5,0,9,0.00